Weather Roundup
Issued by NWS Corpus Christi, TX

Home | Current Version | Previous Version | Text Only | Print | Product List | Glossary On
Versions: 1 2 3 4 5 6 7 8 9 10 11 12 13 14 15 16 17 18 19 20 21 22 23 24 25 26 27 28 29 30 31 32 33 34 35 36 37 38 39 40 41 42 43 44 45 46 47 48 49 50
000
ASUS44 KCRP 291610
HRRCRP

SOUTH TEXAS REGIONAL WEATHER ROUNDUP
NATIONAL WEATHER SERVICE CORPUS CHRISTI TX
1100 AM CDT MON MAY 29 2017


TXZ229>244-291700-
...CORPUS CHRISTI AREA OBSERVATIONS...

CITY           SKY/WX    TMP DP  RH WIND       PRES   REMARKS
CORPUS CHRISTI LGT RAIN  75  73  93 E6        30.05R
NAS CORPUS CHR CLOUDY    79  71  76 E16       30.04R
ROCKPORT       CLOUDY    77  69  76 E9        30.07R
KINGSVILLE NAS LGT RAIN  77  74  90 NE8       30.04R
ALICE          PTSUNNY   78  69  73 NE8       30.05R
ORANGE GROVE   CLOUDY    77  69  76 E3        30.07R
FALFURRIAS     CLOUDY    78  70  77 NE9       30.03S
$$

...VICTORIA AREA OBSERVATIONS...

CITY           SKY/WX    TMP DP  RH WIND       PRES   REMARKS
VICTORIA       CLOUDY    74  70  87 S24G30    30.02F
BEEVILLE       LGT RAIN N/A N/A N/A CALM      30.08R
PLEASANTON     CLOUDY    73  69  89 E9G17     30.08R
SAN ANTONIO    CLOUDY    73  67  81 E12       30.10R
$$

...LAREDO AREA OBSERVATIONS...

CITY           SKY/WX    TMP DP  RH WIND       PRES   REMARKS
LAREDO         PTSUNNY   80  68  66 VRB3      30.05R
COTULLA        PTSUNNY   80  69  69 E14       30.05R
DEL RIO        PTSUNNY   80  67  64 E6        30.05S
MCALLEN        CLOUDY    79  68  69 NE10      30.01S
HEBBRONVILLE   CLOUDY    77  65  66 E14       30.06R
$$

...OTHER TEXAS OBSERVATIONS...

CITY           SKY/WX    TMP DP  RH WIND       PRES   REMARKS
BROWNSVILLE    CLOUDY    80  73  79 NE8       29.96F
HOUSTON        CLOUDY    73  68  84 NE5       30.06S
COL. STATION   CLOUDY    75  69  81 NE3       30.07S
AUSTIN         CLOUDY    74  68  81 VRB5      30.08F
WACO           PTSUNNY   78  70  76 N5        30.07S
FORT WORTH     PTSUNNY   80  62  54 E6        30.07S
WICHITA FALLS  MOSUNNY   82  54  37 N8        30.09S
LUBBOCK        MOSUNNY   77  35  21 E10       30.19R
EL PASO        SUNNY     77  43  29 E13       30.14F
$$

...MARINE OBSERVATIONS...

STATION/POSITION TIME  SKY/WX   TEMP    WIND        PRES    VSBY  WAVE   SWELL
                                AIR SEA DIR/SP/G                  HT/PER HT/PER
                 (UTC)          (F)     (DEG/KT/KT) (MB)    (MI)  (FT/S) (FT/S)
PORT ARANSAS     1600            76 80   50/ 11/ 12 1017.7R
BUOY 90 E PORT A 1550            75 79  150/ 10/ 12 1016.1F         5/ 7   5/ 7
BUOY 45 SE BAFFI 1550            76      80/ 21/ 25 1014.8R        10/ 8   3/12
BUOY 200 E PT IS 1550            81 81   90/ 16/ 17 1015.0F         5/ 6   2/10
BUOY 15 E GALVES 1550            77 79  210/ 21/ 25 1015.1F         5/ 6
$$




USA.gov is the U.S. government's official web portal to all federal, state and local government web resources and services.